Terminal Aerodrome Forecast
Issued by NWS Bismarck, ND

Home | Current Version | Previous Version | Graphics & Text | Print | Product List | Glossary On
Versions: 1 2 3 4 5 6 7 8 9 10 11 12 13 14
000
FTUS43 KBIS 280500
TAFBIS
TAF
KBIS 280520Z 2806/0106 15008KT P6SM SCT060
     FM281600 29007KT P6SM BKN050
     FM281900 31010KT P6SM SCT050=

USA.gov is the U.S. government's official web portal to all federal, state and local government web resources and services.